Wind_Speed
24 21 19 17 15 15 14 13 14 14 14 13 14 13 14 15 16 16 16 18 17 18 19 19 20 21 21 22 22 22 21 22 20 20 20 17 16 16 16 15 14 15 13 13 11
23 23 21 19 18 17 18 18 17 18 19 20 20 19 19 20 21 21 21 23 23 23 23 24 25 26 26 26 26 27 24 25 24 25 24 23 22 22 19 17 18 17 17 17 15
23 23 24 24 23 23 23 23 23 24 24 25 25 25 23 23 26 26 27 27 27 28 28 28 29 29 29 30 29 29 26 27 28 28 28 27 26 27 25 20 22 21 23 21 21
29 28 29 29 29 29 29 29 29 30 30 30 30 30 28 27 28 29 29 30 31 31 31 33 32 32 32 33 33 32 29 30 29 33 31 31 29 29 31 20 25 27 24 23 24
37 35 35 34 34 34 35 35 36 36 37 36 36 35 32 26 29 30 29 30 31 32 33 33 33 36 36 35 36 35 31 32 32 35 35 34 30 33 26 22 30 28 25 24 28
43 43 42 41 40 40 41 41 40 40 40 39 37 34 30 25 31 34 33 32 32 33 35 37 37 38 38 38 38 35 30 29 30 32 35 37 33 33 18 29 31 29 29 29 29
44 44 45 44 43 43 43 42 40 40 38 38 38 37 34 28 29 31 34 35 36 37 37 38 40 41 41 39 40 37 34 28 23 27 35 41 30 26 26 34 33 30 31 28 29
43 42 42 42 42 41 41 40 41 42 42 43 43 42 36 30 33 35 36 37 39 41 42 42 43 42 41 40 41 41 41 35 24 32 37 42 30 20 31 36 34 31 32 32 28
47 46 45 45 45 45 45 45 45 45 45 45 44 45 40 35 36 39 40 40 41 41 43 42 45 45 41 40 43 41 47 43 36 33 39 43 44 25 33 38 38 34 33 34 31
49 49 49 49 48 47 48 47 47 47 47 47 47 46 47 43 43 43 43 44 44 45 44 44 48 47 40 41 46 45 47 43 42 31 44 49 52 42 35 42 36 35 35 36 37
52 52 52 51 50 50 50 51 50 52 50 51 53 51 49 51 50 48 46 48 49 47 45 47 50 46 42 48 50 50 49 49 42 39 49 50 51 50 44 41 38 38 37 37 38
56 54 54 54 54 53 53 54 54 55 54 53 52 53 52 53 55 53 51 50 51 49 45 46 48 42 48 49 50 51 52 53 52 46 51 53 53 52 50 46 40 40 39 38 39
56 57 56 56 57 56 55 55 56 54 54 47 48 50 49 50 51 49 50 51 50 49 46 48 47 47 49 51 49 49 52 52 55 52 53 56 56 54 50 44 42 34 36 34 37
55 58 58 57 57 56 57 56 55 54 54 54 51 49 48 48 49 46 46 48 45 44 45 48 41 43 45 47 42 53 45 50 53 58 61 59 62 61 56 52 49 44 38 41 35
54 54 53 58 56 58 58 57 56 54 58 56 53 45 44 46 46 48 49 49 48 49 48 49 49 50 53 52 56 58 58 57 60 63 66 67 71 67 62 60 59 54 52 48 46
50 52 52 50 56 61 61 59 57 58 67 62 61 59 56 55 54 55 54 55 57 59 59 57 55 57 55 53 54 55 59 62 64 66 70 66 67 65 66 67 58 57 55 54 51
49 50 49 50 49 53 59 60 61 66 67 66 62 59 60 60 61 63 65 64 63 66 65 63 60 58 55 56 51 50 55 61 65 66 67 62 65 69 71 61 57 55 56 55 56
53 51 52 53 53 56 58 58 65 68 68 68 70 69 68 67 68 67 68 71 69 67 71 72 73 60 53 52 58 56 52 57 62 63 65 64 73 72 61 58 59 61 60 59 56
62 60 61 59 64 60 54 59 67 69 70 71 72 77 78 75 69 72 74 74 69 63 63 66 79 70 70 61 56 61 61 54 60 62 67 70 73 67 60 55 50 53 58 59 59
67 67 65 65 63 63 62 64 67 70 69 74 75 77 78 81 77 76 76 75 75 73 66 66 72 77 73 69 71 65 61 63 64 68 71 73 70 67 63 53 54 58 60 59 63
70 75 74 72 71 78 74 70 68 67 65 71 73 73 80 81 78 75 79 78 79 78 73 78 77 78 80 80 74 75 76 74 71 71 75 75 75 57 51 48 52 52 58 59 65
76 77 77 77 80 82 82 81 81 78 80 83 83 80 80 79 79 82 80 81 81 83 82 80 72 74 85 84 83 84 83 78 74 77 71 72 75 69 60 50 51 54 61 61 47
78 79 78 79 83 82 80 80 82 83 80 85 83 83 83 89 92 95 92 89 88 79 84 77 76 78 75 83 86 79 68 65 66 67 75 81 79 61 54 52 50 62 61 61 54
78 76 77 79 81 82 81 81 82 81 82 79 80 79 80 79 78 78 76 79 82 78 70 66 68 72 76 70 65 65 64 61 64 73 73 77 77 67 62 56 49 57 67 77 71
73 75 78 77 76 76 77 81 82 81 79 77 79 76 77 77 76 73 74 73 69 70 69 65 68 60 62 61 59 65 63 60 58 62 67 71 73 72 75 67 60 67 74 78 80
74 74 75 75 75 75 74 75 76 75 78 79 77 77 75 74 73 74 74 72 72 67 65 66 67 66 69 69 74 74 67 65 68 70 70 67 74 75 65 68 66 71 76 84 85
74 75 74 74 73 73 72 72 71 70 72 73 75 75 73 74 72 72 72 71 71 70 66 66 66 73 84 75 80 87 79 81 82 83 77 75 74 67 52 59 58 61 68 70 76
Wind_Direction
256 252 250 246 245 247 255 266 264 266 271 279 286 292 297 297 294 293 297 296 300 299 301 301 300 301 303 303 304 305 309 311 310 308 308 310 309 308 306 308 310 313 313 314 315
251 249 246 246 255 261 263 268 272 275 278 280 281 284 288 292 292 291 294 296 297 297 296 298 299 299 300 300 301 302 305 301 303 302 300 300 300 298 294 294 292 295 294 297 298
251 250 250 252 260 265 269 271 274 277 280 282 283 284 284 283 284 286 287 289 291 292 292 292 291 292 293 294 293 297 298 293 294 295 294 295 295 296 292 287 283 284 285 288 288
253 253 255 258 262 268 271 275 277 279 283 284 284 285 286 286 283 281 284 284 285 287 289 289 288 289 287 289 288 290 292 289 291 291 293 289 291 288 291 286 279 285 286 281 279
260 259 259 261 263 267 269 273 276 276 278 280 279 281 281 284 280 284 284 285 286 286 285 286 287 286 288 287 284 288 285 286 287 288 288 286 287 284 297 284 276 284 287 273 270
260 262 264 265 266 268 269 271 274 275 275 276 275 274 275 277 278 284 285 287 289 291 292 291 290 288 289 288 284 285 284 282 284 286 284 282 276 286 305 272 275 280 281 282 277
261 263 263 265 267 269 269 270 272 272 273 273 273 273 274 271 272 275 281 286 288 289 289 289 289 289 291 291 289 285 281 280 284 277 274 268 284 293 276 271 274 276 278 283 289
262 263 264 264 265 266 267 268 269 270 271 272 273 273 273 268 272 272 277 280 284 287 288 287 286 288 292 294 297 295 289 278 257 264 274 279 285 276 274 275 274 274 277 282 288
263 263 263 264 265 266 266 267 268 269 270 271 272 273 272 269 268 271 274 277 280 285 286 285 284 285 289 294 294 299 290 285 280 283 281 278 280 271 267 268 272 274 278 282 284
265 265 265 265 265 265 267 268 268 268 270 271 271 273 274 273 270 268 272 275 277 280 282 282 281 281 287 289 284 282 287 289 287 284 279 280 280 274 262 268 273 277 278 278 278
263 264 265 266 267 267 268 268 268 270 270 271 274 272 274 273 272 272 272 273 275 276 279 277 276 283 288 280 282 282 283 284 288 289 280 275 276 279 276 265 273 275 272 270 270
264 264 264 265 266 267 268 270 270 271 270 271 271 274 274 274 274 274 273 272 273 274 274 276 276 280 274 276 277 280 283 283 283 279 275 280 280 281 282 283 285 283 280 276 275
262 262 263 264 265 266 267 268 270 272 272 268 272 273 277 277 279 280 274 269 271 273 274 266 273 275 274 274 277 278 276 280 280 280 276 281 285 283 284 286 287 290 287 279 275
264 260 264 266 266 266 266 267 267 268 272 274 272 273 276 277 278 279 274 272 272 270 270 269 271 275 275 276 275 273 278 276 278 279 281 277 290 291 289 286 285 285 286 290 290
263 266 269 265 269 270 269 267 267 272 273 275 275 275 278 279 283 283 281 279 278 275 272 271 270 269 272 275 273 278 278 277 277 277 277 280 280 292 293 295 290 290 287 286 284
267 266 268 265 262 266 269 267 267 270 269 274 276 276 277 279 280 281 280 279 278 275 273 273 274 277 277 275 275 277 277 277 275 275 274 280 283 287 288 286 294 294 292 291 289
264 265 264 261 260 264 267 268 268 267 268 274 274 279 281 281 282 282 281 281 281 280 278 276 276 278 277 276 276 275 275 275 274 273 279 279 276 284 281 291 291 293 291 288 289
270 265 265 263 263 272 268 271 268 267 268 272 272 276 280 281 282 281 279 279 280 280 281 282 280 276 277 274 274 272 268 269 274 275 275 267 269 281 283 288 292 291 287 287 284
259 261 262 264 266 263 258 256 270 274 274 275 277 273 272 277 278 277 279 280 275 273 273 277 276 277 278 275 272 273 270 274 271 271 273 274 277 279 286 289 284 291 287 280 279
258 253 257 258 256 252 248 254 261 270 273 274 273 273 272 273 274 273 275 276 274 271 271 276 275 273 273 273 273 276 276 274 274 279 278 278 277 281 283 286 284 282 280 278 277
261 258 257 262 262 256 253 252 252 258 261 259 264 263 269 270 268 268 272 273 274 274 275 282 287 273 271 269 274 280 281 282 284 281 283 285 285 288 288 286 285 278 268 267 270
268 265 263 267 270 267 262 267 266 261 262 269 268 262 263 260 263 265 268 269 276 280 284 287 290 287 277 276 278 282 290 295 288 291 287 280 275 294 295 280 274 273 263 263 272
267 268 269 270 269 271 270 270 270 271 274 274 276 278 278 277 279 278 278 277 288 285 289 289 287 291 289 290 286 294 292 285 284 280 277 281 286 295 282 282 275 267 267 264 264
266 267 266 268 270 271 273 273 272 272 273 275 276 277 278 278 279 281 280 281 283 285 285 282 278 280 284 289 285 280 284 281 277 270 277 272 277 276 277 272 261 265 264 260 256
268 268 269 269 269 271 272 272 273 274 273 273 274 275 276 277 278 277 277 279 279 277 278 275 275 271 265 268 264 272 269 268 272 273 275 277 277 279 275 267 253 250 256 256 259
271 270 269 270 270 271 271 273 273 273 273 274 274 275 276 276 277 277 277 277 278 276 276 275 273 261 259 262 264 265 258 266 265 267 268 275 279 275 270 272 268 257 253 258 265
271 272 271 271 272 271 272 272 272 272 271 273 274 274 275 276 276 277 279 279 280 280 279 274 272 266 266 268 264 261 266 264 265 268 267 271 270 270 268 266 265 266 262 259 261
Height
5876 5877 5877 5877 5878 5878 5878 5879 5879 5879 5879 5879 5878 5878 5878 5877 5876 5876 5875 5875 5874 5873 5872 5871 5870 5869 5868 5868 5867 5866 5866 5864 5863 5862 5861 5860 5860 5859 5857 5856 5854 5852 5851 5850 5850
5872 5873 5874 5875 5875 5875 5876 5876 5876 5876 5876 5876 5876 5876 5875 5874 5873 5872 5872 5871 5870 5869 5868 5868 5867 5866 5865 5864 5863 5862 5862 5860 5859 5858 5857 5856 5855 5854 5853 5853 5851 5850 5849 5847 5847
5868 5870 5870 5871 5871 5872 5872 5872 5872 5872 5872 5872 5872 5872 5872 5871 5870 5869 5867 5866 5866 5865 5863 5862 5861 5861 5860 5858 5858 5858 5858 5855 5853 5852 5851 5851 5850 5848 5848 5848 5846 5846 5845 5845 5844
5864 5864 5865 5866 5866 5867 5867 5867 5867 5867 5867 5866 5866 5867 5867 5868 5866 5864 5863 5862 5860 5859 5858 5857 5856 5854 5853 5852 5850 5851 5852 5848 5849 5845 5845 5844 5845 5843 5841 5844 5841 5840 5840 5840 5839
5857 5858 5859 5859 5860 5861 5861 5861 5861 5861 5861 5861 5861 5861 5862 5864 5859 5858 5857 5856 5855 5854 5852 5851 5850 5847 5847 5845 5842 5843 5845 5843 5842 5839 5837 5836 5838 5835 5838 5836 5832 5832 5833 5834 5832
5850 5851 5852 5853 5854 5854 5854 5855 5855 5855 5854 5854 5853 5853 5855 5859 5854 5852 5851 5850 5849 5848 5847 5845 5843 5840 5840 5838 5835 5835 5836 5837 5835 5833 5829 5826 5829 5827 5835 5826 5826 5826 5825 5825 5825
5842 5843 5845 5846 5846 5847 5847 5847 5847 5846 5846 5845 5845 5845 5849 5851 5849 5847 5844 5844 5843 5841 5840 5837 5834 5833 5832 5832 5829 5827 5827 5828 5829 5826 5818 5813 5822 5825 5823 5816 5817 5819 5818 5818 5817
5834 5835 5836 5837 5838 5838 5838 5839 5838 5838 5838 5837 5836 5836 5840 5843 5841 5840 5839 5838 5836 5835 5833 5831 5827 5826 5826 5825 5822 5820 5818 5818 5822 5816 5812 5806 5813 5821 5813 5809 5810 5811 5809 5808 5809
5825 5826 5827 5829 5829 5830 5829 5829 5829 5829 5829 5828 5828 5827 5832 5835 5834 5832 5831 5830 5828 5827 5825 5823 5819 5818 5820 5817 5813 5813 5804 5808 5814 5814 5805 5800 5796 5813 5807 5800 5800 5803 5803 5801 5801
5815 5816 5817 5819 5819 5821 5820 5820 5819 5819 5819 5819 5818 5821 5821 5824 5823 5823 5822 5821 5819 5817 5816 5814 5809 5808 5814 5810 5801 5799 5795 5797 5798 5810 5797 5791 5786 5793 5798 5792 5796 5796 5795 5794 5793
5805 5806 5807 5809 5809 5810 5811 5810 5810 5811 5810 5810 5809 5810 5811 5809 5811 5812 5813 5811 5808 5808 5807 5803 5799 5804 5808 5799 5795 5791 5788 5786 5792 5795 5782 5779 5773 5776 5784 5786 5787 5788 5785 5784 5783
5794 5796 5796 5797 5798 5798 5800 5799 5798 5797 5798 5799 5800 5797 5799 5798 5796 5800 5801 5799 5797 5797 5796 5794 5789 5797 5791 5789 5786 5783 5781 5778 5777 5780 5772 5768 5764 5767 5769 5772 5780 5779 5779 5777 5774
5783 5784 5784 5785 5785 5787 5788 5788 5788 5786 5783 5790 5789 5787 5787 5788 5786 5788 5787 5785 5784 5785 5786 5781 5782 5782 5780 5777 5778 5776 5770 5769 5763 5766 5764 5758 5751 5756 5760 5766 5767 5769 5766 5766 5764
5769 5772 5774 5774 5776 5775 5776 5776 5777 5777 5775 5774 5777 5778 5778 5777 5777 5774 5772 5774 5774 5774 5773 5771 5774 5771 5769 5767 5768 5760 5765 5760 5757 5753 5747 5751 5739 5739 5748 5756 5760 5761 5761 5757 5757
5757 5761 5760 5764 5764 5763 5764 5764 5767 5769 5764 5759 5759 5764 5765 5766 5767 5768 5766 5764 5763 5762 5762 5762 5760 5759 5758 5759 5755 5755 5751 5750 5748 5744 5740 5738 5732 5732 5739 5741 5741 5746 5748 5748 5746
5746 5748 5750 5752 5749 5748 5749 5753 5756 5757 5745 5749 5747 5749 5752 5755 5753 5751 5751 5752 5751 5750 5748 5749 5747 5745 5744 5744 5742 5740 5737 5734 5732 5729 5727 5734 5727 5717 5729 5725 5729 5729 5729 5727 5726
5735 5736 5738 5740 5738 5737 5738 5739 5741 5738 5736 5737 5735 5734 5737 5737 5736 5738 5739 5737 5734 5732 5733 5731 5729 5731 5730 5729 5730 5727 5723 5716 5712 5712 5716 5722 5709 5715 5712 5720 5719 5716 5710 5710 5711
5723 5724 5726 5727 5727 5726 5725 5725 5723 5721 5723 5723 5724 5724 5722 5721 5721 5721 5721 5723 5721 5717 5715 5710 5715 5714 5716 5714 5712 5710 5708 5704 5693 5696 5695 5697 5689 5702 5712 5711 5706 5700 5699 5697 5696
5710 5711 5713 5715 5712 5712 5711 5709 5707 5707 5708 5709 5707 5708 5711 5706 5703 5704 5706 5708 5705 5704 5700 5693 5699 5698 5697 5697 5699 5696 5690 5692 5676 5675 5667 5675 5675 5682 5704 5702 5694 5688 5683 5683 5680
5693 5695 5698 5699 5697 5695 5693 5697 5696 5697 5695 5690 5690 5691 5694 5690 5682 5686 5688 5692 5689 5687 5683 5678 5672 5682 5680 5682 5679 5678 5678 5671 5664 5652 5648 5648 5659 5671 5689 5686 5680 5677 5672 5668 5664
5675 5677 5681 5680 5676 5675 5676 5684 5685 5688 5682 5674 5671 5669 5673 5671 5667 5664 5665 5668 5668 5667 5666 5657 5651 5662 5657 5663 5664 5658 5652 5653 5649 5643 5631 5627 5630 5663 5667 5671 5666 5664 5660 5655 5648
5657 5660 5664 5660 5657 5656 5662 5668 5668 5669 5664 5654 5652 5652 5653 5658 5649 5647 5646 5648 5650 5645 5641 5639 5631 5625 5637 5646 5640 5634 5636 5636 5621 5620 5617 5609 5604 5641 5650 5646 5645 5647 5644 5635 5628
5635 5641 5643 5638 5636 5640 5645 5646 5644 5649 5645 5638 5631 5634 5637 5633 5627 5629 5630 5635 5628 5625 5622 5624 5614 5606 5604 5616 5624 5611 5616 5611 5606 5600 5589 5583 5584 5618 5618 5626 5628 5622 5619 5611 5606
5618 5619 5620 5617 5621 5619 5619 5625 5623 5629 5623 5619 5614 5614 5614 5609 5612 5603 5607 5608 5612 5609 5609 5605 5600 5597 5592 5598 5599 5586 5592 5596 5589 5574 5571 5567 5567 5585 5593 5598 5603 5598 5588 5583 5586
5597 5600 5599 5600 5603 5601 5597 5601 5604 5604 5600 5604 5594 5595 5591 5588 5591 5588 5586 5590 5596 5593 5591 5587 5581 5579 5578 5580 5579 5572 5573 5575 5572 5564 5552 5552 5550 5559 5561 5566 5572 5561 5559 5558 5559
5576 5578 5580 5580 5580 5579 5579 5582 5584 5585 5580 5582 5574 5573 5573 5569 5567 5566 5566 5568 5574 5576 5573 5566 5559 5559 5555 5565 5561 5550 5551 5555 5551 5549 5538 5536 5528 5536 5535 5537 5543 5542 5540 5537 5535
5557 5556 5557 5562 5560 5558 5562 5560 5562 5564 5560 5559 5556 5553 5552 5548 5546 5545 5543 5548 5547 5550 5558 5545 5544 5537 5523 5544 5535 5517 5542 5536 5530 5531 5517 5510 5511 5514 5513 5516 5518 5516 5517 5517 5514